This is the latest recevied weather packets stored in our database for station/object KC8SWY-15. If no packets are shown the sender has not sent any weather packets the latest 10 day(s).
| Time | Temp. | Humidity | Pressure | Rain* | Wind** | Luminosity | Snow |
|---|---|---|---|---|---|---|---|
| 1778084064 | 10.56° C | 42% | 1014.7 hPa | 0 mm | - | - | - |
| 1778083764 | 10.56° C | 43% | 1014.6 hPa | 0 mm | - | - | - |
| 1778083464 | 10.56° C | 44% | 1014.6 hPa | 0 mm | - | - | - |
| 1778083164 | 10° C | 44% | 1014.6 hPa | 0 mm | - | - | - |
| 1778082864 | 10° C | 43% | 1014.7 hPa | 0 mm | - | - | - |
| 1778082565 | 10° C | 40% | 1014.7 hPa | 0 mm | - | - | - |
| 1778082264 | 10.56° C | 42% | 1014.6 hPa | 0 mm | - | - | - |
| 1778081964 | 10° C | 43% | 1014.5 hPa | 0 mm | - | - | - |
| 1778081664 | 10.56° C | 44% | 1014.5 hPa | 0 mm | - | - | - |
| 1778081364 | 10.56° C | 42% | 1014.3 hPa | 0 mm | - | - | - |
| 1778081065 | 10.56° C | 43% | 1014.5 hPa | 0 mm | - | - | - |
| 1778080765 | 10° C | 45% | 1014.6 hPa | 0 mm | - | - | - |
| 1778080465 | 10° C | 44% | 1014.5 hPa | 0 mm | - | - | - |
| 1778080165 | 10° C | 44% | 1014.6 hPa | 0 mm | - | - | - |
| 1778079865 | 10° C | 45% | 1014.6 hPa | 0 mm | - | - | - |
| 1778079565 | 10° C | 42% | 1014.6 hPa | 0 mm | - | - | - |
| 1778079265 | 9.44° C | 43% | 1014.5 hPa | 0 mm | - | - | - |
| 1778078965 | 9.44° C | 45% | 1014.6 hPa | 0 mm | - | - | - |
| 1778078665 | 9.44° C | 43% | 1014.4 hPa | 0 mm | - | - | - |
| 1778078365 | 9.44° C | 44% | 1014.3 hPa | 0 mm | - | - | - |
| 1778078065 | 9.44° C | 46% | 1014.2 hPa | 0 mm | - | - | - |
| 1778077765 | 9.44° C | 48% | 1014.2 hPa | 0 mm | - | - | - |
| 1778077465 | 9.44° C | 47% | 1014.1 hPa | 0 mm | - | - | - |
| 1778077165 | 9.44° C | 47% | 1014.1 hPa | 0 mm | - | - | - |
| 1778076865 | 9.44° C | 46% | 1014.1 hPa | 0 mm | - | - | - |
* Rain latest hour (hover to see other rain measurements)
** Current wind speed in m/s (hover to see current wind gust speed)